Вернуться в каталог

DELTA 4 R/B

LostMEO
NORAD 38834·ROCKET BODY·🇺🇸 United States

Запущен Oct 4, 2012 с Cape Canaveral Space Force Station

Loading…

Ближайшие Пролёты (ближайшие 24 часа)

TLE

УстаревшееSource: Space-Track

Эпоха: Aug 5, 2026, 08:31 UTC

1 38834U 12053B   26217.35530902  .00000052  00000-0  00000+0 0  9998
2 38834  52.8657 163.4058 0209710 130.8946  53.0237  1.89445614 95734

Отслеживайте DELTA 4 R/B в реальном времени с AllMySat

Download on the App Store